Theta_e
288 288 288 287 287 287 287 287 286 286 286 286 286 286 286 286 285 285 285 285 285 286 286 287 287 287 287 287 287 286 285 285 285 285 283 283 283 283 282 282 281 282
288 288 287 287 287 287 286 286 286 286 286 286 285 285 285 285 285 285 285 285 286 286 286 287 287 287 287 287 286 285 285 285 285 284 282 282 283 282 282 282 281 282
288 287 287 287 287 287 286 286 286 286 285 285 285 285 285 285 285 285 285 285 286 286 286 286 287 287 287 286 285 284 284 284 284 283 280 281 282 281 282 282 280 281
288 287 287 287 286 286 286 286 286 285 285 285 284 284 284 284 284 285 285 285 286 286 286 286 286 286 286 285 283 282 283 282 282 280 278 280 280 280 281 281 280 280
287 287 287 286 286 286 286 285 285 285 284 284 284 284 284 284 284 285 285 285 286 286 286 286 286 285 284 284 282 281 281 281 281 278 277 279 279 279 280 279 279 280
287 286 286 286 286 285 285 285 284 284 284 283 283 283 283 284 284 284 285 285 285 286 285 285 285 284 283 281 281 280 279 280 280 277 276 277 277 278 278 277 278 279
286 286 286 286 285 285 285 284 284 283 283 283 283 283 283 283 284 284 284 285 285 285 285 284 284 283 282 279 277 278 277 277 277 276 275 276 275 276 277 276 277 278
286 286 286 285 285 285 284 284 283 283 282 282 283 283 283 283 283 284 284 284 284 284 284 283 282 281 279 276 274 275 275 274 273 273 273 274 274 275 277 276 277 278
286 286 285 285 285 284 284 283 282 282 282 282 282 282 282 283 283 284 284 283 283 283 282 282 281 279 277 274 272 273 273 273 273 272 272 273 273 274 276 276 277 277
285 285 285 285 284 284 283 282 282 282 282 281 282 282 282 283 283 283 283 283 282 282 281 280 279 278 275 273 272 272 271 272 272 272 272 273 274 274 275 276 277 277
285 285 285 284 284 283 283 282 282 281 281 281 281 282 282 283 283 283 282 282 281 281 280 278 277 276 274 272 271 271 270 271 272 273 272 273 274 274 275 275 276 277
285 285 284 284 283 283 282 282 281 281 281 281 281 282 283 283 283 282 281 281 280 279 277 276 275 274 273 272 272 271 270 271 272 273 273 273 273 274 274 275 276 277
285 285 284 283 283 282 282 281 281 280 280 281 281 282 282 282 282 282 281 279 278 277 276 274 273 273 272 272 272 272 272 272 273 273 273 273 273 273 274 274 275 276
285 284 283 283 282 282 281 281 280 280 280 281 281 282 282 282 281 281 280 279 277 276 275 274 273 272 272 273 273 273 273 273 273 273 273 273 273 273 274 274 275 275
284 284 283 282 282 281 281 280 280 280 280 281 282 282 282 281 281 279 279 279 277 275 274 274 274 273 273 273 274 273 273 273 273 273 273 273 273 273 274 275 275 275
284 283 282 282 281 281 280 280 279 280 280 281 282 282 281 281 280 279 278 277 275 274 273 273 274 273 273 274 274 273 273 273 273 273 274 274 274 274 274 275 276 276
283 283 282 281 281 280 279 279 279 280 280 281 281 281 281 280 279 278 276 274 273 272 272 272 272 272 272 273 273 273 273 274 274 274 275 275 275 275 275 275 276 277
283 282 282 281 280 279 279 279 279 280 280 281 281 281 280 279 278 276 275 274 273 272 271 271 271 271 271 272 273 273 274 275 275 276 276 276 276 276 276 276 276 277
282 282 281 280 279 278 278 278 279 280 280 281 281 280 279 278 277 276 275 273 272 271 271 271 272 272 272 273 273 273 274 275 276 276 277 277 277 277 276 276 276 276
282 281 280 279 278 278 278 278 279 280 280 280 280 280 278 277 276 276 274 273 271 271 270 271 272 273 273 273 273 274 275 276 277 277 278 278 278 277 277 277 276 276
282 281 279 278 278 278 278 278 279 279 279 279 279 278 277 276 276 275 275 273 272 271 271 271 273 273 273 273 273 274 275 276 277 278 278 278 278 278 277 277 277 276
281 280 278 277 277 277 278 278 278 279 279 279 278 277 276 276 275 274 274 273 272 272 271 271 273 274 273 273 274 274 276 277 277 278 279 279 278 278 277 277 277 277
280 279 277 277 277 277 277 277 278 278 278 278 278 277 276 276 275 274 273 272 272 272 271 271 272 274 273 273 274 275 276 277 277 278 278 279 279 279 278 277 277 277
279 278 277 276 276 277 277 277 277 278 277 277 277 277 276 276 274 274 274 272 272 272 272 270 271 273 273 273 273 275 276 276 277 278 278 279 280 280 279 278 277 277
278 277 276 276 276 276 276 276 277 277 277 277 277 276 276 276 274 273 273 273 272 272 272 271 271 272 272 273 273 274 275 276 276 277 278 279 280 280 280 279 278 278
277 276 276 276 276 276 276 276 276 277 277 277 277 276 276 275 274 272 272 272 271 271 271 271 271 271 272 272 273 274 274 275 276 277 277 278 279 280 281 280 279 279
Wind_Speed
28 31 33 35 36 37 39 40 42 44 45 45 46 47 48 48 48 48 48 48 48 48 49 49 51 52 52 53 53 52 52 51 52 52 50 50 50 48 47 47 46 46
28 31 33 35 36 37 39 40 42 43 44 45 45 46 47 48 48 48 48 48 49 49 50 50 51 52 54 55 54 53 52 52 53 52 51 51 50 49 49 49 49 48
29 31 33 35 37 38 39 40 41 42 43 44 45 45 47 47 48 48 47 48 49 50 50 51 53 53 54 55 54 54 53 52 53 51 50 50 50 50 49 48 49 48
29 31 33 34 36 38 39 40 41 42 43 44 44 45 46 47 48 48 48 48 50 51 52 52 54 56 57 55 54 56 54 51 51 49 49 50 49 48 48 46 47 47
30 31 33 34 36 37 39 40 41 42 43 44 45 45 46 47 48 49 49 50 50 52 53 54 55 56 57 56 54 54 52 49 49 47 47 50 48 46 44 42 43 44
30 32 33 35 36 37 39 40 40 42 43 44 45 45 46 47 48 49 50 51 52 53 55 56 57 56 55 54 54 52 48 46 45 42 43 46 46 44 41 39 40 41
30 32 33 35 36 37 38 40 40 42 43 44 45 45 46 47 49 50 51 52 54 55 56 56 56 56 54 51 51 50 47 44 42 40 41 42 42 42 40 40 41 41
31 32 33 35 36 37 38 40 41 41 42 44 45 46 46 48 49 50 51 53 54 55 56 56 54 53 51 47 47 48 46 42 38 37 39 39 38 39 39 41 43 43
31 32 34 35 37 38 39 40 41 42 42 44 45 46 47 48 49 51 51 52 53 53 54 55 53 51 49 45 44 44 44 42 38 36 36 36 38 39 37 38 42 43
31 33 34 36 37 38 39 40 41 42 43 44 45 46 47 48 49 50 51 51 52 52 52 52 51 49 47 45 42 41 42 43 41 39 37 35 36 36 34 33 35 38
31 33 35 36 37 38 40 41 42 43 43 43 44 45 47 48 49 49 50 50 51 51 51 50 49 46 44 43 41 39 40 41 40 40 39 37 36 35 34 33 32 33
32 34 36 37 38 39 41 42 43 43 44 44 44 45 47 48 49 49 49 49 49 48 48 47 46 45 42 42 40 37 38 40 39 37 38 38 38 37 37 38 37 37
34 36 37 39 39 40 42 43 44 44 44 44 44 45 47 48 48 49 48 48 47 45 44 43 43 43 41 39 39 37 36 37 38 36 36 37 37 37 36 37 39 40
35 37 38 39 40 41 42 43 44 44 43 44 44 45 47 47 48 48 48 47 44 42 41 40 40 41 40 37 36 36 35 36 36 36 36 37 37 38 37 34 35 37
36 38 39 40 41 42 42 43 43 43 43 43 44 45 47 47 47 47 47 46 44 42 41 38 37 38 39 36 35 35 35 37 38 38 39 39 39 40 40 36 32 34
36 38 39 40 41 41 42 42 42 43 43 43 44 46 47 47 48 48 47 46 45 43 41 40 39 39 39 36 34 34 35 37 39 41 41 42 40 39 41 39 34 33
37 39 40 40 41 40 40 41 41 42 42 43 44 46 47 48 48 48 46 45 44 43 41 40 41 42 41 38 35 35 35 37 39 40 41 43 42 39 38 37 33 31
37 39 40 40 39 39 39 40 40 41 41 43 44 46 48 48 48 46 45 44 43 43 42 41 41 41 39 37 35 35 35 37 38 39 41 42 42 41 39 37 36 35
38 39 39 38 38 38 38 39 39 40 41 43 45 47 48 48 47 46 45 44 44 44 44 42 40 38 36 35 34 35 36 37 37 39 41 42 42 44 43 39 37 36
38 38 37 37 36 37 37 37 38 39 40 43 45 47 48 48 47 46 45 44 44 44 44 42 39 36 35 34 33 34 36 36 37 39 41 43 44 44 44 41 37 34
37 36 35 35 35 36 36 36 37 38 40 43 45 46 47 47 46 45 46 45 44 44 44 42 39 36 36 34 32 33 34 35 37 38 39 41 43 43 43 42 38 34
35 34 34 34 34 35 35 35 36 37 39 42 45 46 46 46 45 45 46 47 47 45 44 43 41 37 34 33 31 32 34 35 36 38 38 39 40 39 40 41 37 34
32 33 33 33 33 34 35 35 36 37 39 41 44 46 46 46 46 46 47 48 48 47 44 45 44 38 34 32 30 30 33 35 36 37 37 39 39 36 36 37 36 33
30 31 31 31 32 33 34 34 35 37 38 40 43 45 46 46 46 47 49 48 48 47 45 44 43 39 36 35 32 32 34 35 35 35 36 38 40 38 36 35 35 33
29 29 29 30 31 31 32 33 34 36 37 39 41 43 45 46 46 47 50 50 49 47 45 44 43 40 39 37 35 34 34 33 33 35 36 37 39 39 39 36 34 34
27 27 27 28 29 31 31 31 32 34 37 39 40 42 44 45 46 47 49 51 50 48 47 46 42 39 39 39 35 33 32 32 34 36 35 35 37 39 39 37 35 34
Wind_Direction
322 319 318 317 317 318 319 320 319 318 318 319 319 318 318 318 317 317 316 316 314 312 311 309 308 308 306 304 302 301 299 296 293 290 285 280 276 271 264 257 253 252
320 317 316 317 317 319 319 319 318 318 318 318 318 318 317 317 316 316 316 315 313 312 311 310 308 307 305 304 302 300 299 296 293 289 284 280 276 272 266 259 255 253
317 316 316 317 317 318 318 318 318 319 319 318 318 317 316 316 316 315 315 314 313 312 311 310 308 306 305 303 302 301 300 296 293 289 284 280 276 272 268 261 258 255
316 316 316 317 317 318 318 319 320 320 319 318 317 317 316 316 316 316 316 315 313 312 311 310 308 307 305 303 302 301 299 296 292 288 283 280 276 272 269 263 259 256
316 316 317 317 318 318 319 320 321 321 319 318 317 317 318 317 317 317 316 315 314 312 311 309 307 306 304 303 301 300 298 295 291 286 282 279 276 272 268 264 261 258
316 317 317 318 319 320 321 322 321 320 319 318 318 319 319 318 318 318 318 316 314 312 310 308 307 305 304 302 301 300 299 298 293 288 284 280 276 273 266 261 261 260
317 317 318 319 321 322 322 322 321 320 319 319 319 320 320 320 320 319 318 315 313 311 308 307 306 306 305 303 301 301 302 301 296 292 289 284 279 275 266 259 257 256
317 318 320 320 322 323 323 322 321 320 320 320 320 322 322 322 321 319 316 313 311 309 307 307 307 306 306 303 300 300 301 300 294 289 289 286 283 280 272 263 258 255
319 320 321 322 323 324 323 322 321 321 322 322 323 324 323 322 320 317 315 312 309 309 308 308 308 308 306 304 300 297 297 296 292 285 283 282 283 287 282 271 265 259
321 321 322 323 323 324 323 322 322 323 324 325 325 324 322 321 318 316 314 312 311 311 310 309 309 309 308 305 301 296 291 292 293 288 282 279 279 284 285 277 272 266
321 322 323 324 325 325 325 324 324 325 325 326 325 324 322 320 318 316 315 315 315 314 313 311 311 311 309 305 302 297 289 289 293 291 287 284 278 275 274 269 265 263
323 324 325 326 327 327 326 326 325 326 326 327 326 324 322 320 319 319 319 319 319 317 315 313 312 312 309 306 304 299 292 289 291 292 289 287 284 279 277 272 264 256
325 326 327 328 329 329 328 326 326 326 326 327 327 324 323 322 323 323 324 323 322 319 317 315 313 312 309 307 305 302 297 292 291 293 290 288 286 283 282 280 273 262
327 328 329 330 330 330 328 326 325 326 327 328 327 324 324 326 327 327 327 326 325 323 321 319 315 313 311 309 307 305 302 296 293 294 293 291 289 287 285 284 278 270
328 329 330 331 331 329 327 325 326 327 328 329 327 326 327 329 330 331 330 329 329 327 324 322 317 314 314 314 311 307 302 298 295 293 293 293 291 289 290 289 283 274
329 330 331 331 330 328 326 326 328 329 330 329 328 328 330 333 334 335 334 332 331 329 326 323 319 317 318 319 314 304 294 290 288 286 287 288 286 285 285 288 288 281
330 331 331 330 329 327 327 328 330 331 331 330 330 331 333 336 338 337 335 332 330 329 326 322 319 317 319 319 313 302 289 282 281 280 280 282 281 278 276 277 280 277
330 330 330 329 329 328 329 331 332 332 332 331 332 334 336 339 341 338 335 333 331 329 326 322 318 316 317 316 310 301 290 283 282 279 278 279 278 277 275 272 270 267
329 330 330 329 329 330 331 333 334 333 334 334 334 337 339 341 341 339 336 334 332 330 328 325 320 319 321 318 311 302 292 286 285 283 281 279 277 277 278 273 269 268
329 329 329 329 330 331 333 334 335 336 337 337 337 339 341 341 342 340 338 335 334 333 331 327 324 325 325 321 314 305 295 290 288 287 286 283 279 279 280 274 267 265
329 329 329 330 331 333 334 336 338 339 339 339 339 340 341 342 342 341 340 339 338 336 333 330 329 331 329 324 318 310 302 296 293 292 290 286 283 282 281 276 269 263
329 329 329 331 333 334 336 338 340 341 341 340 340 341 342 343 343 343 343 342 342 340 335 333 334 336 334 329 321 312 307 303 300 299 297 293 289 284 279 275 269 261
329 329 330 333 335 335 337 341 343 343 342 342 341 341 343 344 344 345 345 344 343 341 337 334 336 339 337 333 326 317 312 309 306 304 303 300 295 287 278 272 266 259
329 330 332 335 337 338 340 343 345 344 343 343 342 342 343 345 346 346 346 345 343 342 339 336 334 337 341 339 330 318 313 312 311 309 307 305 301 292 283 275 268 261
329 331 334 336 338 339 342 346 347 345 344 344 343 343 344 347 348 347 346 345 343 341 341 339 336 339 344 338 325 318 317 317 316 313 310 310 307 298 288 280 273 267
330 333 336 338 339 340 344 348 348 346 345 344 344 344 345 349 350 347 345 344 343 342 342 342 340 339 337 331 324 324 324 321 319 315 311 312 310 302 291 282 277 273